Location: The Saddle
(36.8333°N, 80.3417°W)
Time: 08:51:43
(UTC-05:00)

Vanguard 2 Rocket - Pass Details

Date: 18 December 2023
Orbit: 555 x 3309 km, 32.9° (Epoch: 02 March)

Event Time Altitude Azimuth Distance (km) Brightness Sun altitude
Rises 18:58:59 0° 278° (W) 6,896 12.6 -21.6°
Reaches altitude 10° 19:05:10 10° 265° (W) 6,123 12.2 -22.8°
Maximum altitude 19:17:53 21° 225° (SW) 5,309 11.3 -25.3°
Drops below altitude 10° 19:30:12 10° 184° (S) 5,843 11.1 -27.7°
Sets 19:36:04 0° 170° (S) 6,500 11.2 -28.9°
